Weather History for Wayne, NE

Change the Weather History Date:

Monday, November 7, 2011

  Actual Average (KOFK) Record (KOFK)
Temperature  
Mean Temperature 36 °F 41 °F  
Max Temperature 50 °F 52 °F 78 °F (1915)
Min Temperature 21 °F 30 °F -7 °F (1991)
Degree Days  
Heating Degree Days 30 24  
Month to date heating degree days 156  
Since 1 July heating degree days 741  
Cooling Degree Days 0 0  
Month to date cooling degree days 0  
Year to date cooling degree days 915  
Moisture  
Dew Point 21 °F    
Average Humidity 59    
Maximum Humidity 93    
Minimum Humidity 30    
Precipitation  
Precipitation 0.00 in 0.05 in 0.60 in (1918)
Month to date precipitation 0.35  
Year to date precipitation 25.64  
Snow  
Snow 0.00 in 0.10 in - ()
Month to date snowfall 0.6  
Since 1 July snowfall 1.4  
Snow Depth -    
Sea Level Pressure  
Sea Level Pressure 30.16 in    
Wind  
Wind Speed 3 mph (ENE)    
Max Wind Speed 10 mph    
Max Gust Speed -    
Visibility 10 miles    
Events      
T = Trace of Precipitation, MM = Missing Value Source: NWS Daily Summary

Daily Weather History Graph

Daily Weather History Graph

Search for Another Location

Airport:

Trip Planner

Search our weather history database for the weather conditions in past years. The results will help you decide how hot, cold, wet, or windy it might be!

Date:

Astronomy

Nov. 07, 2011 Rise Set
Actual Time 7:08 AM CST 5:14 PM CST
Civil Twilight 6:38 AM CST 5:43 PM CST
Nautical Twilight 6:05 AM CST 6:17 PM CST
Astronomical Twilight 5:32 AM CST 6:50 PM CST
Moon 3:28 PM CST (11/7) 4:09 AM CST (11/7)
Length of Visible Light 11h 05m
Length of Day
10h 06m
Waxing Gibbous, 92% of the Moon is Illuminated
Nov 7
Waxing Gibbous
Nov 10
Full
Nov 18
Last Quarter
Nov 25
New
Dec 2
First Quarter

Hourly Weather History & Observations

Time (CST) Temp. Windchill Dew Point Humidity Pressure Visibility Wind Dir Wind Speed Gust Speed Precip Events Conditions
12:15 AM 30.2 °F - 23.0 °F 75% 30.07 in 10.0 mi Calm Calm - N/A   Clear
12:35 AM 26.6 °F - 19.4 °F 74% 30.08 in 10.0 mi Calm Calm - N/A   Clear
12:55 AM 26.6 °F - 21.2 °F 80% 30.08 in 10.0 mi Calm Calm - N/A   Clear
1:15 AM 28.4 °F 24.6 °F 21.2 °F 74% 30.08 in 10.0 mi South 3.5 mph - N/A   Clear
1:35 AM 26.6 °F 22.6 °F 19.4 °F 74% 30.09 in 10.0 mi South 3.5 mph - N/A   Clear
1:55 AM 28.4 °F 23.3 °F 19.4 °F 69% 30.09 in 10.0 mi South 4.6 mph - N/A   Clear
2:15 AM 28.4 °F 24.6 °F 19.4 °F 69% 30.09 in 10.0 mi SSW 3.5 mph - N/A   Clear
2:35 AM 26.6 °F 19.1 °F 19.4 °F 74% 30.10 in 10.0 mi SW 6.9 mph - N/A   Clear
2:55 AM 28.4 °F - 21.2 °F 74% 30.10 in 10.0 mi Calm Calm - N/A   Clear
3:15 AM 24.8 °F - 19.4 °F 80% 30.11 in 10.0 mi Calm Calm - N/A   Clear
3:35 AM 23.0 °F - 19.4 °F 86% 30.12 in 10.0 mi Calm Calm - N/A   Clear
3:55 AM 21.2 °F - 19.4 °F 93% 30.12 in 10.0 mi Calm Calm - N/A   Clear
4:35 AM 23.0 °F - 19.4 °F 86% 30.14 in 10.0 mi Calm Calm - N/A   Clear
4:55 AM 23.0 °F - 17.6 °F 80% 30.15 in 10.0 mi Calm Calm - N/A   Clear
5:15 AM 23.0 °F - 19.4 °F 86% 30.15 in 10.0 mi Calm Calm - N/A   Clear
5:35 AM 21.2 °F - 19.4 °F 93% 30.16 in 10.0 mi Calm Calm - N/A   Clear
5:55 AM 21.2 °F - 17.6 °F 86% 30.16 in 10.0 mi Calm Calm - N/A   Clear
6:15 AM 23.0 °F - 19.4 °F 86% 30.17 in 10.0 mi Calm Calm - N/A   Clear
6:35 AM 21.2 °F 16.4 °F 17.6 °F 86% 30.18 in 10.0 mi SW 3.5 mph - N/A   Clear
6:55 AM 21.2 °F - 17.6 °F 86% 30.19 in 10.0 mi Calm Calm - N/A   Clear
7:15 AM 21.2 °F - 17.6 °F 86% 30.19 in 10.0 mi Calm Calm - N/A   Clear
7:35 AM 21.2 °F - 17.6 °F 86% 30.20 in 10.0 mi Calm Calm - N/A   Clear
7:55 AM 23.0 °F - 19.4 °F 86% 30.20 in 10.0 mi Calm Calm - N/A   Clear
8:15 AM 26.6 °F - 21.2 °F 80% 30.21 in 10.0 mi Calm Calm - N/A   Clear
8:35 AM 30.2 °F - 23.0 °F 75% 30.21 in 10.0 mi Calm Calm - N/A   Clear
8:55 AM 32.0 °F - 24.8 °F 75% 30.21 in 10.0 mi Calm Calm - N/A   Clear
9:15 AM 33.8 °F 30.8 °F 28.4 °F 81% 30.20 in 10.0 mi North 3.5 mph - N/A   Clear
9:35 AM 39.2 °F 35.0 °F 28.4 °F 65% 30.20 in 10.0 mi NE 5.8 mph - N/A   Clear
9:55 AM 41.0 °F 37.1 °F 24.8 °F 53% 30.21 in 10.0 mi East 5.8 mph - N/A   Clear
10:15 AM 42.8 °F 38.0 °F 23.0 °F 46% 30.22 in 10.0 mi ENE 8.1 mph - N/A   Clear
10:35 AM 44.6 °F 41.4 °F 23.0 °F 43% 30.22 in 10.0 mi ENE 5.8 mph - N/A   Clear
10:55 AM 46.4 °F 43.5 °F 21.2 °F 37% 30.22 in 10.0 mi NE 5.8 mph - N/A   Clear
11:15 AM 48.2 °F - 21.2 °F 34% 30.22 in 10.0 mi ENE 9.2 mph - N/A   Clear
11:35 AM 48.2 °F - 19.4 °F 32% 30.21 in 10.0 mi NE 6.9 mph - N/A   Clear
11:55 AM 50.0 °F - 19.4 °F 30% 30.21 in 10.0 mi ENE 6.9 mph - N/A   Clear
12:15 PM 50.0 °F - 19.4 °F 30% 30.20 in 10.0 mi ENE 5.8 mph - N/A   Clear
12:35 PM 50.0 °F - 19.4 °F 30% 30.19 in 10.0 mi ENE 5.8 mph - N/A   Clear
12:55 PM 50.0 °F - 19.4 °F 30% 30.17 in 10.0 mi NE 9.2 mph - N/A   Clear
1:15 PM 50.0 °F - 19.4 °F 30% 30.17 in 10.0 mi NE 8.1 mph - N/A   Clear
1:35 PM 50.0 °F - 19.4 °F 30% 30.15 in 10.0 mi NE 10.4 mph - N/A   Clear
2:15 PM 50.0 °F - 19.4 °F 30% 30.16 in 10.0 mi NE 8.1 mph - N/A   Clear
2:35 PM 50.0 °F - 19.4 °F 30% 30.17 in 10.0 mi NE 8.1 mph - N/A   Clear
2:55 PM 50.0 °F - 19.4 °F 30% 30.17 in 10.0 mi NE 6.9 mph - N/A   Clear
3:15 PM 50.0 °F - 19.4 °F 30% 30.17 in 10.0 mi NE 6.9 mph - N/A   Clear
3:35 PM 50.0 °F - 19.4 °F 30% 30.17 in 10.0 mi East 8.1 mph - N/A   Clear
3:55 PM 48.2 °F - 21.2 °F 34% 30.16 in 10.0 mi NE 6.9 mph - N/A   Clear
4:15 PM 48.2 °F - 21.2 °F 34% 30.17 in 10.0 mi NE 5.8 mph - N/A   Clear
4:35 PM 46.4 °F 44.3 °F 21.2 °F 37% 30.17 in 10.0 mi North 4.6 mph - N/A   Scattered Clouds
4:55 PM 44.6 °F 41.4 °F 21.2 °F 39% 30.16 in 10.0 mi NE 5.8 mph - N/A   Mostly Cloudy
5:15 PM 44.6 °F 42.2 °F 21.2 °F 39% 30.16 in 10.0 mi NE 4.6 mph - N/A   Overcast
5:35 PM 44.6 °F 43.1 °F 21.2 °F 39% 30.16 in 10.0 mi NE 3.5 mph - N/A   Overcast
5:55 PM 42.8 °F 39.3 °F 23.0 °F 46% 30.16 in 10.0 mi NE 5.8 mph - N/A   Overcast
6:15 PM 42.8 °F 39.3 °F 23.0 °F 46% 30.16 in 10.0 mi NE 5.8 mph - N/A   Overcast
6:35 PM 44.6 °F 40.2 °F 21.2 °F 39% 30.16 in 10.0 mi North 8.1 mph - N/A   Mostly Cloudy
6:55 PM 42.8 °F 38.6 °F 21.2 °F 42% 30.15 in 10.0 mi NE 6.9 mph - N/A   Scattered Clouds
7:15 PM 44.6 °F 40.7 °F 21.2 °F 39% 30.16 in 10.0 mi NE 6.9 mph - N/A   Clear
7:35 PM 42.8 °F 39.3 °F 23.0 °F 46% 30.14 in 10.0 mi NE 5.8 mph - N/A   Scattered Clouds
8:15 PM 42.8 °F 38.6 °F 23.0 °F 46% 30.15 in 10.0 mi NNE 6.9 mph - N/A   Overcast
8:35 PM 42.8 °F 40.1 °F 23.0 °F 46% 30.15 in 10.0 mi NNE 4.6 mph - N/A   Overcast
8:55 PM 42.8 °F 40.1 °F 23.0 °F 46% 30.16 in 10.0 mi NE 4.6 mph - N/A   Overcast
9:15 PM 42.8 °F 39.3 °F 23.0 °F 46% 30.16 in 10.0 mi NNE 5.8 mph - N/A   Overcast
9:35 PM 42.8 °F 40.1 °F 23.0 °F 46% 30.16 in 10.0 mi NNE 4.6 mph - N/A   Overcast
9:55 PM 42.8 °F 38.6 °F 23.0 °F 46% 30.15 in 10.0 mi NE 6.9 mph - N/A   Overcast
10:15 PM 42.8 °F 39.3 °F 23.0 °F 46% 30.15 in 10.0 mi NNE 5.8 mph - N/A   Overcast
10:35 PM 42.8 °F 41.1 °F 23.0 °F 46% 30.15 in 10.0 mi SE 3.5 mph - N/A   Overcast
10:55 PM 42.8 °F 41.1 °F 23.0 °F 46% 30.15 in 10.0 mi ESE 3.5 mph - N/A   Overcast
11:15 PM 41.0 °F 38.0 °F 23.0 °F 49% 30.15 in 10.0 mi East 4.6 mph - N/A   Overcast
11:35 PM 42.8 °F 40.1 °F 23.0 °F 46% 30.15 in 10.0 mi East 4.6 mph - N/A   Overcast
11:55 PM 42.8 °F 41.1 °F 23.0 °F 46% 30.14 in 10.0 mi NNE 3.5 mph - N/A   Overcast